Elkins, WV

2:59 AM EST on December 13, 2017 (GMT -0500)
Elkins-Randolph County

Weather History for KEKN - December, 2012

Change the Weather History Date:

Friday, December 21, 2012

  Actual Average Record
Temperature  
Mean Temperature 32 °F 31 °F  
Max Temperature 39 °F 41 °F 74 °F (2013)
Min Temperature 25 °F 21 °F -15 °F (1942)
Degree Days  
Heating Degree Days 33 34  
Month to date heating degree days 485 660  
Since 1 July heating degree days 1900 1944  
Cooling Degree Days 0 0  
Month to date cooling degree days 0 0  
Year to date cooling degree days 675 475  
Moisture  
Dew Point 21 °F    
Average Humidity 76    
Maximum Humidity 82    
Minimum Humidity 69    
Precipitation  
Precipitation 0.05 in 0.10 in 1.15 in (1970)
Month to date precipitation 3.30 2.27  
Year to date precipitation 45.41 44.94  
Snow  
Snow T in - - ()
Month to date snowfall T  
Since 1 September snowfall 18.4  
Snow Depth 0.00 in    
Sea Level Pressure  
Sea Level Pressure 29.57 in    
Wind  
Wind Speed 18 mph (WSW)    
Max Wind Speed 26 mph    
Max Gust Speed 46 mph    
Visibility 3 miles    
Events Rain , Snow    
T = Trace of Precipitation, MM = Missing Value Source: NWS Daily Summary

Daily Weather History Graph

Daily Weather History Graph

Search for Another Location

Airport or City:

Trip Planner

Search our weather history database for the weather conditions in past years. The results will help you decide how hot, cold, wet, or windy it might be!

Date:

Astronomy

Dec. 21, 2012 Rise Set
Actual Time 7:34 AM EST 5:01 PM EST
Civil Twilight 7:04 AM EST 5:31 PM EST
Nautical Twilight 6:31 AM EST 6:04 PM EST
Astronomical Twilight 5:58 AM EST 6:37 PM EST
Moon 12:45 PM EST (12/21) 1:22 AM EST (12/21)
Length of Visible Light 10h 26m
Length of Day
9h 26m
Waxing Gibbous, 64% of the Moon is Illuminated
Dec 21
Waxing Gibbous
Dec 28
Full
Jan 4
Last Quarter
Jan 11
New
Jan 18
First Quarter

Hourly Weather History & Observations

Time (EST) Temp. Windchill Dew Point Humidity Pressure Visibility Wind Dir Wind Speed Gust Speed Precip Events Conditions
12:40 AM 35.6 °F - 30.2 °F 81% 29.48 in 10.0 mi Calm Calm - 0.00 in Rain Light Rain
12:51 AM 36.0 °F 28.5 °F 30.9 °F 82% 29.53 in 10.0 mi WSW 10.4 mph 19.6 mph 0.00 in Rain Light Rain
1:51 AM 36.0 °F 26.7 °F 28.0 °F 73% 29.52 in 9.0 mi WSW 15.0 mph 24.2 mph 0.01 in Rain Light Rain
2:20 AM 33.8 °F 24.3 °F 28.4 °F 81% 29.48 in 1.8 mi WSW 13.8 mph 19.6 mph 0.00 in Snow Light Snow
2:31 AM 33.8 °F 23.9 °F 28.4 °F 81% 29.48 in 3.0 mi West 15.0 mph 21.9 mph 0.01 in Snow Light Snow
2:51 AM 34.0 °F 24.6 °F 25.0 °F 70% 29.52 in 10.0 mi West 13.8 mph 23.0 mph 0.01 in   Overcast
3:51 AM 33.1 °F 24.4 °F 24.1 °F 70% 29.51 in 10.0 mi West 11.5 mph 26.5 mph 0.00 in   Overcast
4:20 AM 32.0 °F 20.5 °F 23.0 °F 69% 29.45 in 10.0 mi WSW 18.4 mph 25.3 mph 0.00 in   Overcast
4:36 AM 30.2 °F 18.1 °F 24.8 °F 80% 29.46 in 2.5 mi West 18.4 mph 29.9 mph 0.00 in Snow Light Snow
4:51 AM 30.9 °F 21.2 °F 21.9 °F 69% 29.50 in 9.0 mi West 12.7 mph 27.6 mph 0.00 in Snow Light Snow
5:51 AM 30.0 °F 20.0 °F 23.0 °F 75% 29.50 in 3.0 mi West 12.7 mph 18.4 mph 0.00 in Snow Light Snow
6:51 AM 28.9 °F 17.7 °F 19.9 °F 69% 29.51 in 8.0 mi West 15.0 mph 33.4 mph 0.00 in Snow Light Snow
7:18 AM 28.4 °F 17.5 °F 19.4 °F 69% 29.47 in 10.0 mi WSW 13.8 mph 25.3 mph 0.00 in   Overcast
7:51 AM 28.0 °F 16.1 °F 19.9 °F 72% 29.52 in 6.0 mi WSW 16.1 mph 39.1 mph 0.00 in Snow Light Snow
8:51 AM 28.0 °F 14.9 °F 19.0 °F 69% 29.51 in 9.0 mi WSW 19.6 mph 27.6 mph 0.00 in Snow Light Snow
9:07 AM 28.4 °F 16.2 °F 19.4 °F 69% 29.46 in 2.0 mi WSW 17.3 mph 34.5 mph 0.00 in Snow Light Snow
9:24 AM 28.4 °F 18.0 °F 21.2 °F 74% 29.47 in 1.0 mi WSW 12.7 mph 26.5 mph 0.00 in Snow Light Snow
9:31 AM 26.6 °F 15.2 °F 21.2 °F 80% 29.47 in 0.5 mi WSW 13.8 mph 34.5 mph 0.01 in Snow Snow
9:51 AM 27.0 °F 13.2 °F 19.9 °F 75% 29.53 in 1.0 mi West 20.7 mph 34.5 mph 0.01 in Snow Light Snow
9:59 AM 26.6 °F 16.2 °F 19.4 °F 74% 29.48 in 1.5 mi WSW 11.5 mph 32.2 mph 0.00 in Snow Light Snow
10:22 AM 26.6 °F 13.8 °F 19.4 °F 74% 29.48 in 0.8 mi West 17.3 mph 27.6 mph 0.00 in Snow Light Snow
10:51 AM 27.0 °F 14.3 °F 19.9 °F 75% 29.53 in 0.8 mi WSW 17.3 mph 29.9 mph 0.00 in Snow Light Snow
11:51 AM 27.0 °F 14.7 °F 19.9 °F 75% 29.53 in 0.8 mi West 16.1 mph 26.5 mph 0.00 in Snow Light Snow
12:51 PM 27.0 °F 13.5 °F 19.9 °F 75% 29.54 in 1.0 mi WSW 19.6 mph 33.4 mph 0.00 in Snow Light Snow
1:29 PM 26.6 °F 14.7 °F 19.4 °F 74% 29.48 in 2.5 mi WSW 15.0 mph 29.9 mph 0.00 in Snow Light Snow
1:40 PM 26.6 °F 13.4 °F 19.4 °F 74% 29.48 in 1.0 mi WSW 18.4 mph 34.5 mph 0.00 in Snow Light Snow
1:48 PM 26.6 °F 13.4 °F 19.4 °F 74% 29.48 in 0.8 mi WSW 18.4 mph 32.2 mph 0.00 in Snow Light Snow
1:51 PM 27.0 °F 14.3 °F 19.9 °F 75% 29.54 in 0.8 mi WSW 17.3 mph 32.2 mph 0.00 in Snow Light Snow
1:59 PM 26.6 °F 12.0 °F 19.4 °F 74% 29.48 in 1.2 mi WSW 23.0 mph 32.2 mph 0.00 in Snow Light Snow
2:15 PM 26.6 °F 13.8 °F 19.4 °F 74% 29.49 in 0.8 mi WSW 17.3 mph 34.5 mph 0.00 in Snow Light Snow
2:51 PM 27.0 °F 13.5 °F 19.9 °F 75% 29.57 in 1.0 mi West 19.6 mph 29.9 mph 0.00 in Snow Light Snow
3:10 PM 26.6 °F 13.4 °F 19.4 °F 74% 29.51 in 0.8 mi West 18.4 mph 36.8 mph 0.00 in Snow Light Snow
3:51 PM 26.1 °F 11.0 °F 19.9 °F 78% 29.59 in 0.5 mi West 24.2 mph 39.1 mph 0.00 in Snow Snow
4:51 PM 26.6 °F 12.7 °F 19.4 °F 74% 29.56 in 0.5 mi West 20.7 mph 32.2 mph N/A Snow Snow
5:38 PM 26.6 °F 12.4 °F 19.4 °F 74% 29.59 in 1.5 mi West 21.9 mph 33.4 mph 0.00 in Snow Light Snow
5:51 PM 26.1 °F 11.0 °F 19.0 °F 75% 29.67 in 1.2 mi WSW 24.2 mph 39.1 mph 0.00 in Snow Light Snow
6:51 PM 26.1 °F 12.7 °F 19.9 °F 78% 29.70 in 1.0 mi West 18.4 mph 39.1 mph 0.00 in Snow Light Snow
7:51 PM 26.1 °F 12.7 °F 19.9 °F 78% 29.74 in 2.0 mi West 18.4 mph 25.3 mph 0.01 in Snow Light Snow
8:02 PM 24.8 °F 10.7 °F 19.4 °F 80% 29.67 in 1.2 mi West 19.6 mph 34.5 mph 0.00 in Snow Light Snow
8:51 PM 26.6 °F 14.3 °F 19.4 °F 74% 29.69 in 1.8 mi West 16.1 mph 33.4 mph N/A Snow Light Snow
9:34 PM 24.8 °F 12.9 °F 19.4 °F 80% 29.71 in 1.0 mi WSW 13.8 mph 29.9 mph 0.00 in Snow Light Snow
9:46 PM 24.8 °F 11.1 °F 19.4 °F 80% 29.71 in 0.8 mi WSW 18.4 mph 33.4 mph 0.00 in Snow Light Snow
9:51 PM 25.0 °F 11.7 °F 19.9 °F 81% 29.80 in 0.8 mi WSW 17.3 mph 32.2 mph 0.00 in Snow Light Snow
10:03 PM 24.8 °F 11.9 °F 19.4 °F 80% 29.72 in 1.0 mi WSW 16.1 mph 27.6 mph 0.00 in Snow Light Snow
10:28 PM 24.8 °F 10.3 °F 19.4 °F 80% 29.73 in 1.2 mi West 20.7 mph 28.8 mph 0.01 in Snow Light Snow
10:51 PM 25.0 °F 11.7 °F 19.0 °F 78% 29.82 in 1.5 mi West 17.3 mph 28.8 mph 0.01 in Snow Light Snow
11:14 PM 24.8 °F 12.4 °F 19.4 °F 80% 29.74 in 0.8 mi WSW 15.0 mph 25.3 mph 0.00 in Snow Light Snow
11:22 PM 24.8 °F 11.5 °F 19.4 °F 80% 29.74 in 1.0 mi WSW 17.3 mph 29.9 mph 0.00 in Snow Light Snow
11:37 PM 24.8 °F 12.9 °F 19.4 °F 80% 29.74 in 1.0 mi WSW 13.8 mph 21.9 mph 0.00 in Snow Light Snow
11:51 PM 26.1 °F 13.6 °F 19.0 °F 75% 29.82 in 2.0 mi West 16.1 mph 28.8 mph 0.00 in Snow Light Snow